Showing default

ORBCOMM FM 105, 41181

Orbit data source: Space-Track

ORBCOMM FM 105, 41181 is a payload satellite owned by Orbcomm (US) in LEO that was launched on Tue, 22 Dec 2015 UTC via an FALCON 9 launch vehicle from the Air Force Eastern Test Range (AFETR). Payloads include a variety of satellites, spacecraft, and rockets equipped with specific instruments for various scientific and technological missions. These include communications satellites like Starlink; space stations such as the ISS; scientific satellites like the Hubble; Earth observation satellites from companies like Planet Labs, Umbra, and HawkEye 360; GPS; miniature CubeSats for education and research; and military/defense satellites.

Loading next visibility...
ORBCOMM FM 105 details
Identifier
41181, 2015-081C
Orbit
LEO
Last TLE update1 day ago
Origin
Flag of USOrbcomm (US / ORB)
ManufacturerSNC Louisville
MissionNon-operational Commercial Communications
Bus & MotorSN-100A, Unknown motor
Mass172 kg wet, 158 kg dry
Launch date (UTC)
2015-12-22 (9 years ago)
Launch vehicle
FALCON 9
Launch site
Air Force Eastern Test Range (AFETR)
Object type
Payload
Rocket body
Debris
Shape & HBRBox + 1 Pan + 1 Ant, 13 m
Radar Cross Section2.222 m², Medium (>0.1 m² and < 1m²)

Expand to show TLE details & history

TLE from 1 day ago
0 ORBCOMM FM 105
1 41181U 15081C   24360.12756489  .00000929  00000-0  30902-3 0  9994
2 41181  47.0022 286.1009 0002179 269.0907  90.9724 14.44923260475574
Epoch: 2024-12-25T03:03Z
Definitive object data (Epoch: 2024-12-25T03:03:41.606Z)
Latitude0.00002°
Longitude146.05179°
Altitude742.519 km
Speed7.485 km/s
True Right ascension19h 04m 24s
True Declination0° 00' 00"
Sunlit
Object was in daylight at TLE epoch
Visualization TLE readout
Latitude-40.05201°
Longitude88.47929°
Altitude753.402 km
Speed7.479 km/s
Apparent Right ascension18h 54m 36s
Apparent Declination-59° 27' 12"
Sunlit
Object is in daylight
Visualization observer readout
Local Sidereal Time11:19:38
Azimuth138.683° SSE
Elevation-45.2°
Doppler factor1
Orbital elements
Apogee altitude745.057 km
Perigee altitude741.953 km
Semi-major axis7,121.642 km
Eccentricity0.0002179
Inclination47.0022°
RAAN286.1009°
Arg. of periapsis269.0907°
True anomaly90.99737°
Mean anomaly90.9724°
Eccentric anomaly90.98488°
Mean motion3.61138 °/min
BSTAR0.00030902
Orbital period99.68 mins
Loading maneuver chart data...
Loading historical data...
Loading historical data...
Loading historical data...
Loading historical data...
Loading historical data...
Loading historical data...
Loading historical data...

ORBCOMM FM 105 Visibility forecast

Observer location: undefined°, undefined

Span
Click to sort rows by Start time (UTC) header in descending order
Start Az.
Max El. time (UTC)
Max El. Az.
Max El.
End time (UTC)
End Az.
7 mins2024-12-26 20:42:12.047Z177.185° S2024-12-26 20:45:12.047Z137.334° SSE20.087°2024-12-26 20:49:12.047Z86.57° E
9 mins2024-12-26 22:25:12.047Z239.099° WSW2024-12-26 22:29:12.047Z218.386° SW44.83°2024-12-26 22:34:12.047Z62.377° ENE
8 mins2024-12-27 00:11:12.047Z290.093° WNW2024-12-27 00:14:12.047Z347.784° N33.632°2024-12-27 00:19:12.047Z60.942° ENE
8 mins2024-12-27 01:56:12.047Z308.033° NW2024-12-27 01:59:12.047Z359.293° N33.602°2024-12-27 02:04:12.047Z80.659° E
8 mins2024-12-27 03:41:12.047Z296.554° NW2024-12-27 03:44:12.047Z266.178° W44.627°2024-12-27 03:49:12.047Z122.369° SE
5 mins2024-12-27 05:26:12.047Z257.578° W2024-12-27 05:28:12.047Z229.274° WSW19.243°2024-12-27 05:31:12.047Z187.861° SSW
|